[[{"header":{"parameterUnit":"m.s-1","parameterCategory":1,"la1":30.2991,"la2":30.254,"lo1":-89.0895,"lo2":-89.0444,"dy":0.0017,"dx":0.0017,"nx":28,"ny":28,"refTime":"2025-03-21T21:00:00:Z","depth":0,"parameterNumber":2,"parameterNumberName":"U-component_of_WINDS"},"data":[0,0,0,0,0,0,0,0,0,0,0,0,0,0,0,0,0,0,0,0,0,0,0,0,0,0,0,0,0,0,0,0,0,0,0,0,0,0,0,0,0,0,0,0,0,0,0,0,0,0,0,0,0,0,0,0,0,0,0.8189,0.8191,0,0.84,0.8402,0.8405,0.8427,0.8425,0.8423,0.8421,0.8644,0.8651,0.8659,0,0,0,0,0,0,0,0,0,0,0,0,0,0.7813,0.7819,0.8189,0.8191,0.8194,0.84,0.8403,0.8406,0.8428,0.8425,0.8422,0.842,0.8641,0.8651,0.866,0,0,0,0,0,0,0,0,0,0,0,0,0,0.7995,0.7822,0.8188,0.823,0.8235,0.8399,0.8403,0.8406,0.8428,0.8425,0.8422,0.8419,0.8638,0.865,0.8661,0.88,0,0,0.8698,0.8703,0,0,0,0,0,0,0,0,0.7985,0.8009,0.8221,0.8227,0.8234,0.8384,0.8352,0.8539,0.8429,0.8355,0.8421,0.8417,0.856,0.8578,0.8625,0.8811,0.882,0.8699,0.8706,0.8711,0.8715,0,0,0,0,0,0,0,0.7972,0.8,0.8272,0.8224,0.8232,0.8241,0.8263,0.8387,0.8474,0.8361,0.8364,0.8388,0.8563,0.8614,0.8631,0.8823,0.8699,0.8709,0.8717,0.8721,0.9138,0.9142,0,0,0,0,0,0,0.7951,0.7989,0.8266,0.8279,0.8099,0.825,0.8275,0.8339,0.8472,0.8489,0.839,0.8388,0.8595,0.8617,0.8639,0.8813,0.8711,0.8722,0.8729,0.9134,0.9139,0.9143,0,0,0,0,0,0,0.7943,0.7975,0.8257,0.8135,0.8171,0.826,0.8332,0.8345,0.8395,0.8494,0.851,0.8426,0.8593,0.8622,0.8761,0.8821,0.8728,0.8739,0.913,0.9136,0.9141,0.9161,0,0,0,0,0,0,0.7932,0.7972,0.8023,0.8136,0.8178,0.8373,0.8335,0.8351,0.8415,0.8414,0.8532,0.8548,0.8593,0.8743,0.8772,0.8836,0.8748,0.9125,0.9132,0.9139,0.9155,0.9167,0.9176,0,0,0,0,0,0.7918,0.8021,0.8026,0.8059,0.8243,0.8376,0.84,0.8448,0.842,0.8474,0.8538,0.8544,0.8809,0.8757,0.879,0.8858,0.9121,0.913,0.9139,0.915,0.9164,0.9176,0,0,0,0,0,0,0.7915,0.8036,0.8043,0.8185,0.827,0.8379,0.8449,0.8461,0.8557,0.8553,0.861,0.8637,0.8774,0.883,0.8769,0.9002,0.8963,0.8979,0.896,0.8974,0.8985,0.8969,0.8758,0,0,0,0,0,0.793,0.8026,0.8127,0.8243,0.8285,0.836,0.8419,0.8449,0.854,0.8577,0.8651,0.8741,0.8846,0.8913,0.9014,0.9163,0.9191,0.9227,0.9238,0.9246,0.926,0.9347,0.9365,0.9172,0.9172,0.9172,0,0,0.7964,0.8042,0.8099,0.8244,0.8314,0.8414,0.839,0.8496,0.8572,0.8594,0.8729,0.8787,0.8892,0.9038,0.9105,0.9089,0.9319,0.9257,0.9263,0.9272,0.9358,0.9376,0.9392,0.9178,0.9177,0.9176,0,0,0.8077,0.8144,0.8249,0.8319,0.8424,0.8474,0.8499,0.8608,0.8647,0.8783,0.8802,0.8895,0.9072,0.9147,0.9209,0.9353,0.9364,0.9385,0.9441,0.9525,0.9541,0.9554,0.9609,0.9628,0.9398,0.9398,0.9398,0,0.8106,0.8255,0.8302,0.8409,0.8474,0.8496,0.8606,0.8672,0.8806,0.8852,0.883,0.9055,0.9127,0.9293,0.9328,0.9376,0.941,0.9372,0.9534,0.9548,0.9562,0.9615,0.9635,0.94,0.94,0.9399,0.9399,0,0.8287,0.8391,0.8464,0.8591,0.8664,0.8771,0.8838,0.8907,0.8931,0.8984,0.9125,0.9213,0.9333,0.9375,0.9399,0.9545,0.9532,0.9522,0.9484,0.9582,0.9633,0.9653,0.9403,0.9402,0.9401,0.9401,0,0,0.8403,0.8556,0.8582,0.8642,0.8761,0.8843,0.8954,0.907,0.913,0.9222,0.9318,0.9469,0.9461,0.9531,0.9565,0.9639,0.9752,0.9621,0.9624,0.9644,0.9923,0.9931,0.9953,0.976,0.9764,0.9767,0.9915,0,0.8531,0.8725,0.8772,0.894,0.9038,0.9063,0.916,0.9245,0.9298,0.9392,0.9452,0.9559,0.9538,0.9581,0.9655,0.9722,0.9809,0.9712,0.9853,0.9858,0.9828,0.9979,0.9988,1.0123,0.9935,0.9938,0.994,0,0.8706,0.8801,0.8978,0.9087,0.9131,0.9216,0.9329,0.9417,0.9516,0.955,0.9629,0.9656,0.9776,0.9731,0.9899,0.9832,0.9893,0.9935,0.9941,0.9958,0.9906,1.0002,1.0167,1.0188,0.9972,0.9969,0.9967,0,0.8776,0.8949,0.9078,0.9128,0.9257,0.9318,0.9375,0.947,0.9539,0.9638,0.9684,0.9796,0.9859,0.9947,1.0005,0.9967,1.017,1.0129,1.0205,1.0203,1.0247,1.0244,1.0426,1.0283,1.0282,1.0282,1.0281,0,0.8916,0.9024,0.9111,0.9191,0.9314,0.9369,0.949,0.9549,0.9634,0.9728,0.9757,0.9845,0.9916,1.0015,1.0062,1.0196,1.0223,1.0257,1.0268,1.0255,1.0251,1.0297,1.029,1.0287,1.0286,1.0285,1.0284,0,0.9015,0.9077,0.922,0.9332,0.9362,0.9449,0.9546,0.9626,0.968,0.9799,0.983,0.9917,1.0035,1.0102,1.0251,1.0283,1.0434,1.0439,1.04,1.0405,1.0478,1.0471,1.0697,1.0731,1.0563,1.0564,1.0566,0,0.91,0.9184,0.9305,0.9369,0.9427,0.9529,0.9599,0.9658,0.973,0.9851,0.9918,1.0037,1.0136,1.0325,1.0404,1.0519,1.053,1.0601,1.0547,1.0533,1.0534,1.0529,1.054,1.0611,1.0612,1.0613,1.0614,0,0.9247,0.9274,0.9372,0.9483,0.9565,0.9655,0.9745,0.9797,0.9871,0.9951,1.0072,1.0148,1.0301,1.0422,1.0544,1.0607,1.0625,1.0631,1.0655,1.0643,1.0618,1.0636,1.0427,1.0626,1.0624,1.0624,1.0623,1.0623,0.9344,0.9421,0.9518,0.9628,0.9701,0.9785,0.9867,0.9932,1.0032,1.016,1.0189,1.0317,1.0419,1.0584,1.0651,1.0754,1.0742,1.0776,1.0785,1.0793,1.0797,1.06,1.0777,1.0776,1.0776,1.0776,1.0776,0,0.9494,0.9558,0.9658,0.9783,0.987,0.9877,0.9978,1.0051,1.0163,1.0255,1.0352,1.0493,1.061,1.0698,1.0819,1.0886,1.0897,1.0916,1.0913,1.0928,1.08,1.0768,1.0905,1.0905,1.0905,1.0905,1.0904,1.0904,0.9582,0.9714,0.9753,0.9923,0.9987,1.0111,1.0169,1.0248,1.0322,1.0477,1.0574,1.063,1.0722,1.085,1.096,1.0983,1.1028,1.1046,1.1071,1.095,1.0936,1.0923,1.0894,1.1054,1.1055,1.119,1.1192,1.1192]},{"header":{"parameterUnit":"m.s-1","parameterCategory":1,"la1":30.2991,"la2":30.254,"lo1":-89.0895,"lo2":-89.0444,"dy":0.0017,"dx":0.0017,"nx":28,"ny":28,"refTime":"2025-03-21T21:00:00:Z","depth":0,"parameterNumber":3,"parameterNumberName":"V-component_of_WINDS"},"data":[0,0,0,0,0,0,0,0,0,0,0,0,0,0,0,0,0,0,0,0,0,0,0,0,0,0,0,0,0,0,0,0,0,0,0,0,0,0,0,0,0,0,0,0,0,0,0,0,0,0,0,0,0,0,0,0,0,0,-1.4636,-1.4637,0,-1.4677,-1.4678,-1.4678,-1.4702,-1.4702,-1.4703,-1.4703,-1.4741,-1.4742,-1.4743,0,0,0,0,0,0,0,0,0,0,0,0,0,-1.4576,-1.4577,-1.4636,-1.4637,-1.4637,-1.4677,-1.4678,-1.4678,-1.4702,-1.4702,-1.4703,-1.4703,-1.4741,-1.4742,-1.4743,0,0,0,0,0,0,0,0,0,0,0,0,0,-1.4608,-1.4577,-1.4636,-1.4654,-1.4656,-1.4677,-1.4678,-1.4678,-1.4702,-1.4702,-1.4703,-1.4703,-1.4741,-1.4742,-1.4744,-1.4748,0,0,-1.4748,-1.4748,0,0,0,0,0,0,0,0,-1.4606,-1.461,-1.4651,-1.4653,-1.4655,-1.4685,-1.4671,-1.4702,-1.4702,-1.4685,-1.4703,-1.4703,-1.4722,-1.4725,-1.4732,-1.475,-1.4752,-1.4748,-1.4749,-1.4749,-1.475,0,0,0,0,0,0,0,-1.4604,-1.4609,-1.4652,-1.4652,-1.4654,-1.4659,-1.4664,-1.4677,-1.4702,-1.4686,-1.4688,-1.4693,-1.4723,-1.4731,-1.4733,-1.4753,-1.4748,-1.4749,-1.475,-1.475,-1.4775,-1.4775,0,0,0,0,0,0,-1.4599,-1.4607,-1.4651,-1.4654,-1.4631,-1.466,-1.4665,-1.4675,-1.4702,-1.4706,-1.4693,-1.4694,-1.4729,-1.4732,-1.4735,-1.4742,-1.4749,-1.4751,-1.4751,-1.4775,-1.4775,-1.4775,0,0,0,0,0,0,-1.4598,-1.4603,-1.465,-1.4631,-1.4637,-1.4661,-1.4672,-1.4676,-1.4683,-1.4707,-1.4711,-1.4696,-1.4729,-1.4733,-1.4745,-1.4743,-1.4751,-1.4752,-1.4776,-1.4775,-1.4775,-1.4756,0,0,0,0,0,0,-1.4596,-1.4602,-1.4606,-1.4631,-1.4638,-1.466,-1.4672,-1.4677,-1.4686,-1.4688,-1.4711,-1.4715,-1.4729,-1.4743,-1.4746,-1.4746,-1.4754,-1.4776,-1.4775,-1.4775,-1.4757,-1.4755,-1.4754,0,0,0,0,0,-1.4594,-1.4598,-1.4606,-1.4611,-1.4642,-1.466,-1.4664,-1.4681,-1.4686,-1.4689,-1.4703,-1.4714,-1.4743,-1.4744,-1.4748,-1.4748,-1.4776,-1.4776,-1.4775,-1.4757,-1.4755,-1.4754,0,0,0,0,0,0,-1.4572,-1.4602,-1.461,-1.4623,-1.4639,-1.4664,-1.4668,-1.4678,-1.4692,-1.4693,-1.4714,-1.4718,-1.4728,-1.4739,-1.4739,-1.4753,-1.4761,-1.4761,-1.4746,-1.4744,-1.4742,-1.4739,-1.4755,0,0,0,0,0,-1.4568,-1.4581,-1.4606,-1.4615,-1.4622,-1.4644,-1.4652,-1.4664,-1.468,-1.4687,-1.4703,-1.4717,-1.473,-1.4737,-1.475,-1.4758,-1.4763,-1.476,-1.4758,-1.4757,-1.4757,-1.4761,-1.476,-1.4774,-1.4774,-1.4774,0,0,-1.4562,-1.458,-1.4586,-1.4611,-1.4624,-1.4636,-1.4649,-1.4661,-1.4669,-1.4688,-1.4701,-1.4712,-1.473,-1.474,-1.4745,-1.4749,-1.4754,-1.4757,-1.4755,-1.4756,-1.476,-1.4759,-1.4758,-1.4773,-1.4773,-1.4773,0,0,-1.4555,-1.457,-1.4579,-1.4592,-1.4612,-1.4626,-1.4628,-1.4651,-1.466,-1.4673,-1.4687,-1.4697,-1.4718,-1.473,-1.4739,-1.4735,-1.4745,-1.4738,-1.473,-1.4733,-1.4732,-1.4731,-1.4729,-1.4728,-1.4738,-1.4738,-1.4738,0,-1.4544,-1.4562,-1.4582,-1.4592,-1.4602,-1.4621,-1.4629,-1.464,-1.4663,-1.4669,-1.4674,-1.47,-1.4713,-1.4726,-1.4725,-1.4731,-1.4733,-1.4736,-1.4731,-1.473,-1.473,-1.4728,-1.4727,-1.4737,-1.4737,-1.4737,-1.4738,0,-1.4547,-1.456,-1.4564,-1.4586,-1.4596,-1.4606,-1.4625,-1.4633,-1.4643,-1.4656,-1.4668,-1.4685,-1.4701,-1.4704,-1.4715,-1.4718,-1.472,-1.4727,-1.4735,-1.4727,-1.4726,-1.4725,-1.4736,-1.4736,-1.4736,-1.4737,0,0,-1.4528,-1.456,-1.4562,-1.4572,-1.4595,-1.4604,-1.4614,-1.463,-1.4636,-1.4651,-1.4658,-1.4675,-1.4682,-1.4692,-1.4704,-1.4707,-1.4702,-1.4714,-1.4715,-1.471,-1.4704,-1.4698,-1.4697,-1.4708,-1.4708,-1.4708,-1.4703,0,-1.4525,-1.4544,-1.456,-1.4572,-1.4584,-1.4601,-1.4608,-1.4623,-1.4635,-1.4645,-1.4658,-1.4669,-1.4678,-1.4684,-1.4688,-1.4701,-1.47,-1.4702,-1.4714,-1.4715,-1.4709,-1.4696,-1.469,-1.4684,-1.4702,-1.4702,-1.4702,0,-1.4523,-1.4538,-1.4551,-1.4572,-1.4577,-1.4584,-1.46,-1.461,-1.4626,-1.4634,-1.4645,-1.4657,-1.4666,-1.4673,-1.4685,-1.4686,-1.4692,-1.4699,-1.4699,-1.47,-1.4708,-1.4697,-1.4683,-1.4681,-1.4702,-1.4702,-1.4702,0,-1.4507,-1.453,-1.4541,-1.4549,-1.4574,-1.4578,-1.4588,-1.4605,-1.4613,-1.4626,-1.4631,-1.4645,-1.4652,-1.4662,-1.4677,-1.4681,-1.4687,-1.4696,-1.4693,-1.4693,-1.4694,-1.4694,-1.468,-1.4698,-1.4698,-1.4699,-1.4699,0,-1.4501,-1.4509,-1.4534,-1.454,-1.4549,-1.4567,-1.4574,-1.4586,-1.46,-1.4608,-1.4623,-1.463,-1.465,-1.4659,-1.4671,-1.4678,-1.4682,-1.4688,-1.4691,-1.4686,-1.4685,-1.469,-1.4691,-1.4698,-1.4698,-1.4698,-1.4698,0,-1.4485,-1.4503,-1.4515,-1.4538,-1.4543,-1.4548,-1.4567,-1.4573,-1.4585,-1.4595,-1.4599,-1.4618,-1.4629,-1.4645,-1.4661,-1.4669,-1.4674,-1.468,-1.4669,-1.4671,-1.4668,-1.4667,-1.4656,-1.4655,-1.4675,-1.4674,-1.4674,0,-1.448,-1.4486,-1.4509,-1.4516,-1.4526,-1.4537,-1.4545,-1.4563,-1.4571,-1.4589,-1.4592,-1.4605,-1.4616,-1.4633,-1.4647,-1.4659,-1.4664,-1.4659,-1.4666,-1.4661,-1.4663,-1.4662,-1.4663,-1.4658,-1.4657,-1.4657,-1.4657,0,-1.4469,-1.4477,-1.4489,-1.4504,-1.4513,-1.4525,-1.4538,-1.4543,-1.4563,-1.4571,-1.4583,-1.4591,-1.4607,-1.4619,-1.4633,-1.4642,-1.4652,-1.4655,-1.4655,-1.465,-1.4643,-1.4646,-1.4664,-1.4655,-1.4655,-1.4655,-1.4655,-1.4655,-1.4458,-1.4464,-1.448,-1.4493,-1.4504,-1.4515,-1.4522,-1.4535,-1.4546,-1.4561,-1.457,-1.4581,-1.4595,-1.4615,-1.4624,-1.4632,-1.4636,-1.4636,-1.4636,-1.4636,-1.4634,-1.4642,-1.4634,-1.4634,-1.4635,-1.4635,-1.4635,0,-1.4447,-1.4458,-1.447,-1.4487,-1.4496,-1.4506,-1.452,-1.4527,-1.4536,-1.4549,-1.456,-1.4572,-1.4583,-1.4599,-1.4611,-1.4614,-1.4619,-1.4616,-1.4616,-1.4618,-1.463,-1.4628,-1.4612,-1.4612,-1.4612,-1.4612,-1.4612,-1.4612,-1.4443,-1.4452,-1.4462,-1.4477,-1.4488,-1.4499,-1.4506,-1.4516,-1.4526,-1.454,-1.4549,-1.456,-1.4573,-1.4586,-1.4596,-1.46,-1.4603,-1.4599,-1.4604,-1.4615,-1.4617,-1.4619,-1.4618,-1.46,-1.46,-1.4591,-1.4591,-1.4591]}]]